Home > Weather > Bernburg (Saale) > Past weeks

Flag for Germany Past Weather in Bernburg (Saale), Saxony-Anhalt, Germany — Yesterday and Last 2 Weeks

Now
66 °F

Clear.


Feels Like: 66 °F
Forecast: 51 / 74 °F
Wind: 6 mph from West

Location: Leipzig-Schkeuditz

Current Time: Aug 29, 2016 at 5:58:42 AM

Latest Report: Aug 29, 2016 at 5:20 AM


Visibility: 10 mi

Pressure: 29.98 "Hg

Humidity: 83%

Dew Point: 61 °F

Location of Bernburg (Saale)Location

Past Weather in Bernburg (Saale) — Graph

°F

Bernburg (Saale) Temperature Yesterday

Maximum temperature yesterday: 95 °F (at 3:50 PM)
Minimum temperature yesterday: 63 °F (at 6:20 AM)
Average temperature yesterday: 79 °F

High & Low Weather Summary for the Past Weeks

 TemperatureHumidityPressure
High95 °F (Aug 28, 3:50 PM)100% (Aug 17, 4:20 AM)30.33 "Hg (Aug 17, 4:20 AM)
Low48 °F (Aug 18, 4:20 AM)19% (Aug 26, 4:50 PM)29.80 "Hg (Aug 18, 3:50 PM)
Average68 °F64%30.08 "Hg
* Reported Aug 14 4:20 AM — Aug 29 4:50 AM, Bernburg (Saale), Weather by CustomWeather, © 2016

Note: Actual official high and low records may vary slightly from our data, if they occured in-between our weather recording intervals... More about our weather records

Advertising

Bernburg (Saale) Weather History for the Previous 24 Hours

Scroll right to see more
 ConditionsComfort  
Time TempWeatherWind HumidityBarometerVisibility
4:50 AM
Mon, Aug 29
66 °FClear.6 mph83%29.98 "Hg10 mi
4:20 AM68 °FOvercast.5 mph83%29.98 "HgN/A
3:50 AM68 °FOvercast.3 mph83%29.98 "HgN/A
3:20 AM68 °FPassing clouds.6 mph83%29.98 "HgN/A
2:50 AM68 °FPassing clouds.7 mph83%29.98 "HgN/A
2:20 AM66 °FPartly cloudy.9 mph88%29.98 "HgN/A
1:50 AM66 °FPassing clouds.6 mph88%29.95 "HgN/A
1:20 AM68 °FPassing clouds.9 mph83%29.98 "HgN/A
12:50 AM66 °FScattered showers. Passing clouds.9 mph94%29.95 "HgN/A
12:20 AM68 °FSprinkles. Partly cloudy.8 mph88%29.95 "HgN/A
11:50 PM
Sun, Aug 28
70 °FSprinkles. Partly cloudy.12 mph78%29.98 "HgN/A
11:20 PM70 °FClear.10 mph78%29.95 "Hg10 mi
10:50 PM70 °FPartly cloudy.3 mph78%29.92 "HgN/A
10:20 PM70 °FSprinkles. Partly cloudy.9 mph73%29.92 "HgN/A
9:50 PM73 °FThundershowers. Partly cloudy.21 mph65%29.95 "HgN/A
9:20 PM77 °FSprinkles. Partly cloudy.33 mph47%29.92 "HgN/A
8:50 PM79 °FBroken clouds.14 mph45%29.89 "HgN/A
8:20 PM82 °FBroken clouds.13 mph37%29.86 "HgN/A
7:50 PM84 °FScattered showers. Broken clouds.16 mph35%29.86 "HgN/A
7:20 PM86 °FThunderstorms. Broken clouds.10 mph33%29.86 "HgN/A
6:50 PM90 °FThunderstorms. Partly sunny.13 mph27%29.86 "HgN/A
6:20 PM90 °FScattered clouds.12 mph29%29.86 "HgN/A
5:50 PM93 °FScattered clouds.14 mph28%29.86 "HgN/A
5:20 PM95 °FPassing clouds.12 mph25%29.86 "HgN/A
4:50 PM95 °FSunny.12 mph26%29.86 "Hg10 mi
4:20 PM93 °FPassing clouds.8 mph26%29.86 "HgN/A
3:50 PM95 °FPassing clouds.8 mph23%29.86 "HgN/A
3:20 PM93 °FPassing clouds.7 mph23%29.89 "HgN/A
2:50 PM91 °FScattered clouds.9 mph23%29.89 "HgN/A
2:20 PM93 °FScattered clouds.10 mph23%29.92 "HgN/A
1:50 PM93 °FPassing clouds.12 mph23%29.92 "HgN/A
1:20 PM93 °FPassing clouds.10 mph26%29.92 "HgN/A
12:50 PM93 °FPassing clouds.12 mph26%29.92 "HgN/A
12:20 PM91 °FPassing clouds.9 mph28%29.92 "HgN/A
11:50 AM88 °FPassing clouds.8 mph33%29.95 "HgN/A
11:20 AM86 °FSunny.9 mph35%29.95 "Hg10 mi
10:50 AM84 °FSunny.10 mph40%29.95 "Hg10 mi
10:20 AM81 °FSunny.10 mph45%29.95 "Hg10 mi
9:50 AM79 °FSunny.8 mph48%29.95 "Hg10 mi
9:20 AM75 °FSunny.9 mph54%29.95 "Hg10 mi
8:50 AM73 °FSunny.9 mph57%29.98 "Hg10 mi
8:20 AM72 °FSunny.10 mph61%29.95 "Hg10 mi
7:50 AM68 °FSunny.8 mph69%29.95 "Hg10 mi
7:20 AM66 °FSunny.8 mph73%29.95 "Hg10 mi
6:50 AM64 °FClear.7 mph78%29.98 "Hg10 mi
6:20 AM63 °FClear.6 mph83%29.98 "Hg10 mi
5:50 AM64 °FClear.6 mph78%29.98 "Hg10 mi
5:20 AM64 °FClear.8 mph78%29.98 "Hg10 mi
Weather by CustomWeather, © 2016

See weather overviewHow to use our weather pages